Location: Austin
(30.3000°N, 97.7500°W)
Time: 00:00:01
(UTC-05:00)

Meteor 2-1 Rocket - Pass Details

Date: 06 May 2026
Orbit: 824 x 910 km, 81.3° (Epoch: 13 May)

Event Time Altitude Azimuth Distance (km) Brightness Sun altitude
Exits shadow 21:37:45 17° 165° (SSE) 2,055 5.8 -17.4°
Maximum altitude 21:42:00 53° 94° (E) 1,057 4.4 -18.2°
Drops below altitude 10° 21:47:29 10° 18° (NNE) 2,493 6.8 -19.1°
Sets 21:49:56 0° 14° (NNE) 3,419 7.6 -19.6°
